AO-07 1 07530U 74089B 25189.55590662 -.00000029 00000-0 11050-3 0 9998 2 07530 101.9931 194.1284 0012617 67.7239 97.8811 12.53690033317457 UO-11 1 14781U 84021B 25189.48910369 .00000857 00000-0 95815-4 0 9993 2 14781 97.7559 155.2894 0006445 234.6897 125.3718 14.89453565205944 AO-27 1 22825U 93061C 25189.44875148 .00000067 00000-0 42862-4 0 9993 2 22825 98.7354 251.1463 0008968 35.3457 324.8318 14.30807237657841 FO-29 1 24278U 96046B 25189.66036786 -.00000029 00000-0 10186-4 0 9997 2 24278 98.5722 79.7231 0348826 267.2601 88.8573 13.53250140426951 NOAA-15 1 25338U 98030A 25189.84017239 .00000164 00000-0 84880-4 0 9993 2 25338 98.5339 214.2654 0008985 274.0928 85.9226 14.26993679412573 GO-32 1 25397U 98043D 25189.84497884 .00000035 00000-0 35068-4 0 9991 2 25397 98.9715 169.5769 0002278 108.7415 251.4010 14.24320997402678 ISS 1 25544U 98067A 25189.85791014 .00007133 00000-0 13082-3 0 9991 2 25544 51.6334 199.6604 0002569 349.2805 10.8129 15.50441982518523 NO-44 1 26931U 01043C 25189.56613539 .00000084 00000-0 62432-4 0 9995 2 26931 67.0511 52.8955 0006211 276.8130 83.2265 14.31746118241250 SO-50 1 27607U 02058C 25189.84570052 .00000974 00000-0 13835-3 0 9996 2 27607 64.5527 110.1937 0059535 327.6553 32.0907 14.81696161213777 CO-55 1 27844U 03031E 25189.55839279 .00000229 00000-0 11854-3 0 9990 2 27844 98.6755 197.4575 0010893 101.9984 258.2416 14.24014652142765 CO-57 1 27848U 03031J 25189.45006586 .00000206 00000-0 10990-3 0 9995 2 27848 98.6783 197.3347 0010629 117.7111 242.5146 14.23346790142474 RS-22 1 27939U 03042A 25189.83878933 .00000734 00000-0 12426-3 0 9995 2 27939 98.3300 0.0009 0010134 278.2076 220.0962 14.72408141165134 CO-58 1 28895U 05043F 25189.35833759 .00001152 00000-0 19561-3 0 9996 2 28895 98.2531 334.0746 0013891 211.3704 148.6674 14.71088643 51171 CO-65 1 32785U 08021C 25189.53570740 .00004055 00000-0 29262-3 0 9990 2 32785 97.7857 160.9191 0011128 111.9202 248.3208 15.04650823933439 CO-66 1 32791U 08021J 25189.49097721 .00008932 00000-0 42673-3 0 9994 2 32791 97.7280 170.1894 0005643 79.1023 281.0846 15.19261262934883 RS-30 1 32953U 08025A 25189.77681751 .00000040 00000-0 21821-3 0 9995 2 32953 82.5009 209.0209 0018831 346.0157 14.0399 12.43166078777169 NOAA-19 1 33591U 09005A 25189.72389481 .00000135 00000-0 95998-4 0 9995 2 33591 98.9962 254.5904 0012680 282.1725 77.8026 14.13386574846223 SRMSAT 1 37841U 11058D 25189.58480086 .00000369 00000-0 56498-4 0 9996 2 37841 19.9736 339.0290 0011836 24.1264 50.4834 14.11443105709211 ZACUBE-1 1 39417U 13066B 25189.86722208 .00002926 00000-0 25567-3 0 9997 2 39417 97.7800 146.7314 0042987 315.6243 44.1536 14.96882481629299 Delfi-N3xt 1 39428U 13066N 25189.73486711 .00003422 00000-0 35021-3 0 9999 2 39428 97.8339 107.0652 0082511 264.5404 94.6397 14.88696543623597 GOMX-1 1 39430U 13066Q 25189.87005340 .00001510 00000-0 23924-3 0 9997 2 39430 97.6810 46.7334 0133804 98.5751 263.0642 14.67734327619703 LO-74 1 39440U 13066AA 25189.42000943 .00002437 00000-0 24872-3 0 9995 2 39440 97.8499 133.7842 0063525 85.0418 275.8048 14.90089536625735 AO-73 1 39444U 13066AE 25189.45003805 .00005197 00000-0 38756-3 0 9994 2 39444 97.7808 151.4794 0040992 289.4975 70.1824 15.02653350627922 DTUSAT-2 1 40030U 14033W 25189.41255179 .00005308 00000-0 34390-3 0 9995 2 40030 98.0552 162.6333 0008189 331.9276 28.1508 15.08568769600745 EO-80 1 40032U 14033Y 25189.49757873 .00003693 00000-0 24025-3 0 9992 2 40032 98.0438 162.3378 0006738 260.5576 99.4889 15.08647207600731 LILACSAT-2 1 40908U 15049K 25189.86445276 .00008655 00000-0 22246-3 0 9990 2 40908 97.5045 210.9265 0010579 63.0828 297.1497 15.39478944542731 IO-86 1 40931U 15052B 25151.18580175 .00001241 00000-0 78118-4 0 9996 2 40931 6.0006 24.0987 0012733 338.8432 21.1169 14.78805930523047 Horyu-4 1 41340U 16012D 25189.56215689 .00016065 00000-0 41358-3 0 9991 2 41340 30.9971 296.8787 0006436 8.2086 351.8664 15.37932930517258 Lapan A3 1 41603U 16040E 25189.86710372 .00002312 00000-0 81915-4 0 9990 2 41603 97.1367 193.3281 0011693 155.9697 204.2093 15.30022772502262 CAS-2T 1 41847U 16066G 25189.44859919 .00001237 00000-0 18272-3 0 9993 2 41847 98.4195 263.6574 0347051 91.2048 272.8918 14.43570053455181 CAS-4B 1 42759U 17034B 25189.88704396 .00059525 00000-0 54081-3 0 9999 2 42759 43.0044 146.7387 0019401 138.9039 221.3293 15.66884052447190 CAS-4A 1 42761U 17034D 25189.89426007 .00069493 00000-0 59042-3 0 9990 2 42761 43.0081 143.5019 0020542 143.9976 216.2278 15.68437325447224 TechnoSat 1 42829U 17042E 25189.82778381 .00002311 00000-0 18101-3 0 9999 2 42829 97.3846 357.1341 0016574 175.9064 184.2300 15.01829463435114 AO-91 1 43017U 17073E 25189.58329557 .00007259 00000-0 36738-3 0 9995 2 43017 97.5223 59.6206 0172890 68.0257 293.9242 15.05139229413576 S-Net D 1 43186U 18014G 25189.28803927 .00003638 00000-0 21518-3 0 9990 2 43186 97.5604 91.9027 0010511 121.0766 239.1498 15.12042070406710 S-Net B 1 43187U 18014H 25189.29381640 .00003293 00000-0 19521-3 0 9993 2 43187 97.5609 91.8817 0011312 117.2475 242.9909 15.12021704406716 S-Net A 1 43188U 18014J 25189.28833145 .00003662 00000-0 21654-3 0 9995 2 43188 97.5616 92.0301 0011167 117.9559 242.2803 15.12047105406713 S-Net C 1 43189U 18014K 25189.29629573 .00003214 00000-0 19056-3 0 9991 2 43189 97.5634 92.0571 0012806 111.9183 248.3410 15.12017505405262 Ten-Koh 1 43677U 18084G 25189.46822241 .00001530 00000-0 12601-3 0 9994 2 43677 98.0845 2.8672 0008136 156.1774 203.9826 15.00679211364574 PO-101 1 43678U 18084H 25189.83815270 .00002108 00000-0 18184-3 0 9994 2 43678 98.1043 7.0803 0008635 176.6469 183.4811 14.98432572364761 QO-100 1 43700U 18090A 25189.35351727 .00000160 00000-0 00000-0 0 9997 2 43700 0.0146 328.5500 0002586 173.1910 297.8665 1.00272889 24223 MinXSS-2 1 43758U 18099A 25189.44261701 .00011521 00000-0 44346-3 0 9998 2 43758 97.5013 255.5830 0012616 60.5847 299.6649 15.26465352361372 AO-95 1 43770U 18099N 25189.59732352 .00005936 00000-0 29762-3 0 9991 2 43770 97.4905 247.3669 0012221 110.5449 249.7097 15.17654778360958 RANGE-A 1 43773U 18099R 25189.37580851 .00002748 00000-0 17598-3 0 9997 2 43773 97.4465 236.9433 0013071 93.8551 266.4173 15.09302977360566 MOVE-II 1 43780U 18099Y 25189.78519328 .01277230 96069-3 18720-2 0 9992 2 43780 97.4580 268.1593 0011549 252.3626 107.6394 16.05199924362431 SNUSat 2 1 43782U 18099AA 25189.14343508 .00005275 00000-0 28580-3 0 9999 2 43782 97.4588 243.4355 0013245 60.7096 299.5459 15.14957616360823 SnugLite 1 43784U 18099AC 25189.88480604 .00006265 00000-0 31129-3 0 9994 2 43784 97.4399 243.7833 0004801 69.6592 290.5157 15.17999199361086 ITASat 1 1 43786U 18099AE 25189.57788910 .00004525 00000-0 25759-3 0 9992 2 43786 97.4550 243.2853 0015848 105.8363 254.4617 15.13226170360847 EAGLET 1 1 43790U 18099AJ 25189.72425432 .00002239 00000-0 14433-3 0 9998 2 43790 97.4748 243.2881 0013737 90.5724 269.7079 15.09252839360463 ESEO 1 43792U 18099AL 25189.36859252 .00000574 00000-0 47260-4 0 9996 2 43792 97.4445 235.8207 0014362 66.5138 293.7595 15.02694055360143 CSIM 1 43793U 18099AM 25189.29051919 .00088849 00000-0 41123-3 0 9995 2 43793 97.4771 269.5571 0001958 153.7423 206.3946 15.83235720362171 JO-97 1 43803U 18099AX 25189.59502189 .00007763 00000-0 34906-3 0 9997 2 43803 97.4650 248.4192 0008345 54.4640 305.7373 15.21367608361180 Suomi 100 1 43804U 18099AY 25189.39338765 .00006842 00000-0 33099-3 0 9992 2 43804 97.4717 247.4321 0013270 53.8016 306.4444 15.18836023361074 ISAT 1 43879U 18111D 25189.72242333 .00014097 00000-0 47512-3 0 9997 2 43879 97.5942 104.7755 0010840 95.6217 264.6260 15.30798599356131 UWE-4 1 43880U 18111E 25188.73236346 .00010471 00000-0 40220-3 0 9997 2 43880 97.5888 102.0407 0013816 109.2221 251.0513 15.26549309357927 Sparrow 1 43881U 18111F 25189.54973904 .00014129 00000-0 45785-3 0 9991 2 43881 97.6091 107.5909 0008675 126.5228 233.6813 15.32085486358229 Prox-1 1 44339U 19036A 25189.80808455 .00006066 00000-0 74235-3 0 9997 2 44339 23.9955 229.7366 0007779 50.1005 310.0176 14.80421604322447 SONATE 1 44400U 19038Q 25185.47540524 .09032085 27445-5 31847-3 0 9995 2 44400 97.6609 216.4776 0012462 246.7970 113.2018 16.43248376333575 Taurus 1 1 44530U 19059C 25189.87064869 .00003721 00000-0 68654-3 0 9998 2 44530 98.6093 330.6632 0007928 306.6262 53.4210 14.66113231308236 Duchifat 3 1 44854U 19089C 25189.65536196 .00034135 00000-0 61898-3 0 9999 2 44854 36.9403 170.0222 0005823 214.5395 145.4984 15.48674072307451 TO-108 1 44881U 19093C 25189.85851157 .00000680 00000-0 84549-4 0 9990 2 44881 97.7919 264.8959 0014911 131.8178 228.4313 14.85648651300427 FloripaSat 1 1 44885U 19093G 25189.79335981 .00004337 00000-0 36490-3 0 9993 2 44885 97.8175 277.4560 0012821 106.8659 253.3970 14.98724936301127 RS-44 1 44909U 19096E 25189.55886198 .00000037 00000-0 10716-3 0 9994 2 44909 82.5195 208.0245 0216539 227.6199 130.6396 12.79741731258398 UPMSat 2 1 46276U 20061E 25189.73993520 .00065652 00000-0 49190-3 0 9997 2 46276 97.2423 265.1785 0002080 148.0810 212.0580 15.72450664270041 SALSAT 1 46495U 20068K 25189.46070673 .00004843 00000-0 20843-3 0 9991 2 46495 97.8610 168.8317 0012896 66.7299 293.5292 15.23065578262925 CubeSX-Sirius-HSE 1 47951U 21022V 25157.62701764 .07883385 25648-5 89537-3 0 9993 2 47951 97.4004 72.1904 0010275 223.9924 136.0557 16.36879307233400 CubeSX-HSE 1 47952U 21022W 25157.69972699 .06655353 25454-5 93288-3 0 9992 2 47952 97.3980 72.5414 0010307 219.3637 140.6911 16.34906352233436 GRBAlpha 1 47959U 21022AD 25160.45426279 .07940347 25506-5 90589-3 0 9995 2 47959 97.3899 75.6235 0011032 227.2558 132.7812 16.36806138232695 TUBIN 1 48900U 21059X 25189.75046002 .00032849 00000-0 36689-3 0 9998 2 48900 97.6750 1.4001 0004220 126.9252 233.2392 15.62705764224597 LEDSAT 1 49069U 21073D 25189.76511260 .00061403 00000-0 63888-3 0 9994 2 49069 97.3883 272.5990 0006910 322.5202 37.5575 15.64370841215991 CUTE 1 49263U 21088D 25189.45778073 .00012298 00000-0 23776-3 0 9999 2 49263 97.4507 266.5681 0009421 132.1772 228.0280 15.47871182208894 TeikyoSat 4 1 49396U 21102B 25189.81957918 .00001138 00000-0 78331-4 0 9999 2 49396 97.4087 227.1916 0013505 39.7615 320.4600 15.07742242200956 Z-Sat 1 49399U 21102E 25189.82148369 .00002684 00000-0 14828-3 0 9992 2 49399 97.3784 230.4712 0018012 8.4821 351.6712 15.14612966201401 KOSEN 1 1 49402U 21102H 25189.69372293 .00004241 00000-0 19605-3 0 9996 2 49402 97.3690 233.9844 0014921 343.2838 16.7903 15.20609709201712 HO-113 1 50466U 21131B 25189.85817390 .00000319 00000-0 11345-3 0 9995 2 50466 98.5109 279.0685 0005110 59.6437 300.5256 14.40841834185667 Foresail-1 1 52766U 22057AL 25176.64799660 .13857605 27391-5 25307-3 0 9992 2 52766 97.5832 331.2310 0012137 233.7199 258.4922 16.46795272172486 SNUGLITE 2 1 52899U 22065F 25189.89441359 .00000728 00000-0 15045-3 0 9991 2 52899 98.1722 331.5885 0008117 30.8014 329.3663 14.63267547160778 UmKA 1 (RS40S) 1 57172U 23091G 25189.85682682 .00003425 00000-0 18352-3 0 9993 2 57172 97.5567 245.0885 0013194 228.4506 131.5596 15.15611833111917 CubeBel-2 (EU11S) 1 57175U 23091K 25189.87423821 .00005526 00000-0 26129-3 0 9991 2 57175 97.5567 246.4336 0010825 234.4324 125.5902 15.19758621112005 VERONIKA 1 58261U 23174F 25189.81664665 .00186254 00000-0 10066-2 0 9997 2 58261 97.4093 277.9363 0005854 248.6096 111.4547 15.79577757 93285 ENSO 1 58470U 23185J 25189.87415974 .00046744 00000-0 60669-3 0 9998 2 58470 97.3727 265.9909 0004662 332.4822 27.6187 15.58691527 89594 EIRSAT-1 1 58472U 23185L 25189.82774218 .00117825 00000-0 83071-3 0 9995 2 58472 97.3665 268.4187 0003071 293.2196 66.8744 15.73717274 89751 SONATE-2 1 59112U 24043Q 25189.87240200 .00011335 00000-0 31942-3 0 9994 2 59112 97.5168 321.6591 0010792 16.9215 343.2387 15.36548186 74835 MO-122 1 60209U 24125G 25189.55429055 .00012616 00000-0 34895-3 0 9999 2 60209 97.2768 40.8609 0019146 38.5479 321.7129 15.36961611 56401 GRBBeta 1 60237U 24128C 25189.54791810 .00002852 00000-0 22097-3 0 9995 2 60237 61.9925 338.5385 0053988 63.8407 296.8223 15.02842993 54552 Curium One 1 60242U 24128H 25189.73454113 .00004927 00000-0 34504-3 0 9995 2 60242 61.9824 335.7424 0053874 60.1265 300.5165 15.05471105 54627 ROBUSTA-3A 1 60243U 24128J 25189.41413801 .00005202 00000-0 36850-3 0 9993 2 60243 61.9895 337.7903 0052818 57.7850 302.8346 15.04993115 54567 CatSat 1 60246U 24125J 25189.52207266 .00007205 00000-0 23788-3 0 9992 2 60246 97.2567 39.7094 0041607 353.5256 6.5442 15.30851149 54417 HYPERVIEW-1G (RS66S) 1 61772U 24199AP 25189.86197535 .00014651 00000-0 41225-3 0 9991 2 61772 97.3501 58.6735 0015274 89.5264 270.7730 15.36462143 81456 AO-123 1 61781U 24199AY 25189.84279463 .00004723 00000-0 17134-3 0 9991 2 61781 97.3516 57.2184 0017558 94.1633 266.1614 15.28676131 81358 ZIMSAT 2 1 61783U 24199BA 25189.87331226 .00026642 00000-0 61427-3 0 9990 2 61783 97.3473 59.5352 0014882 87.1381 273.1569 15.42438740 84665 HADES-R (SO-124) 1 62690U 25009CK 25189.45212289 .00026021 00000-0 87436-3 0 9999 2 62690 97.4088 270.1766 0001681 15.5705 344.5587 15.30813488 26565 HYDRA-T 1 62692U 25009CM 25189.17098856 .00028754 00000-0 95713-3 0 9994 2 62692 97.4091 269.9420 0001295 17.9759 342.1528 15.31097929 26520 JINJUSat 1B 1 63210U 25052A 25189.21511893 .00007649 00000-0 34641-3 0 9998 2 63210 97.4394 82.9812 0003307 194.7888 165.3251 15.21149807 17603 NUSHSAT 1 1 63211U 25052B 25189.20524562 .00008654 00000-0 38825-3 0 9990 2 63211 97.4383 82.9800 0003189 201.5041 158.6062 15.21432342 17609 TEVEL2-4 1 63213U 25052D 25189.42198254 .00007981 00000-0 36166-3 0 9999 2 63213 97.4300 83.0260 0001844 213.6904 146.4215 15.21117452 17630 TEVEL2-5 1 63214U 25052E 25189.22560779 .00008165 00000-0 37019-3 0 9996 2 63214 97.4299 82.8301 0001776 215.5296 144.5822 15.21091717 17605 TEVEL2-6 1 63215U 25052F 25189.42586112 .00007957 00000-0 36125-3 0 9993 2 63215 97.4301 83.0228 0001843 216.4381 143.6729 15.21054126 17633 TEVEL2-1 1 63217U 25052H 25189.44110492 .00008392 00000-0 38332-3 0 9997 2 63217 97.4278 82.9659 0001694 245.7507 114.3551 15.20830174 17635 TEVEL2-2 1 63218U 25052J 25189.50718245 .00008141 00000-0 37190-3 0 9998 2 63218 97.4277 83.0312 0001738 247.0877 113.0175 15.20832962 17643 TEVEL2-3 1 63219U 25052K 25189.50741534 .00008070 00000-0 36876-3 0 9997 2 63219 97.4276 83.0306 0001697 247.1224 112.9832 15.20826132 17647 TEVEL2-8 1 63237U 25052AD 25189.46419386 .00007775 00000-0 36807-3 0 9994 2 63237 97.4339 82.8788 0006067 274.2876 85.7666 15.19602371 17623 TEVEL2-9 1 63238U 25052AE 25189.20431604 .00007596 00000-0 36041-3 0 9995 2 63238 97.4340 82.6173 0006182 276.9761 83.0770 15.19532525 17587 TEVEL2-7 1 63239U 25052AF 25189.47031808 .00007416 00000-0 35228-3 0 9994 2 63239 97.4339 82.8719 0006172 275.5341 84.5190 15.19503294 17620 HYDRA-W 1 63490U 25052BL 25189.83206285 .00017846 00000-0 72754-3 0 9999 2 63490 97.4288 83.6851 0009128 267.6374 92.3818 15.24471914 17713 HADES-ICM (SO-125) 1 63492U 25052BN 25189.19926655 .00018181 00000-0 75267-3 0 9995 2 63492 97.4297 83.0114 0009567 275.4214 84.5932 15.23947095 17614